Location: Roc des P�zouls
(43.9667°N, 3.5500°E)
Time: 10:55:16
(UTC+00:00)

Cosmos 1766 Rocket - Pass Details

Date: 14 November 2019
Orbit: 606 x 632 km, 82.5° (Epoch: 08 December)

Event Time Altitude Azimuth Distance (km) Brightness Sun altitude
Rises 05:47:26 0° 205° (SSW) 2,850 6.9 -9.5°
Reaches altitude 10° 05:49:45 10° 213° (SSW) 1,951 6.0 -9.1°
Maximum altitude 05:53:48 40° 283° (WNW) 908 3.9 -8.4°
Drops below altitude 10° 05:57:54 10° 354° (N) 1,970 5.9 -7.7°
Sets 06:00:15 0° 2° (N) 2,882 6.8 -7.3°
